Vertical_Velocity
-0 1 -3 -1 -4 4 -1 -0 -5 -3 -3 0 -1 -1 -2 -5 -0 -1 -9 3 3 -2 2 1 2 2 2 0 4 2 -5 -0 -3 -1 -7 -0 -1 -0 0 -0 -0 -0 -2 -3 -2
2 1 -6 4 0 -5 3 -2 -2 -5 -1 -2 -0 -2 1 -4 -6 -0 2 3 4 3 1 1 -0 1 1 0 1 -3 -2 -5 -4 -2 -2 -1 1 2 1 0 -2 -0 1 1 2
1 -3 -4 -0 -3 4 -4 2 -1 -3 2 -3 -0 -2 1 -5 -4 2 3 3 1 5 3 0 1 2 1 1 -1 0 -3 -2 -5 -4 3 0 -1 0 -1 -1 -6 -1 -3 -3 -3
-1 1 -2 -2 1 -5 -1 1 5 -8 3 -2 -1 -3 2 -4 -4 -1 1 1 4 4 1 1 2 2 0 -0 0 -0 -1 -1 -4 -3 2 -1 1 -0 -1 -14 -1 -1 2 0 -1
1 -5 4 2 -4 0 -3 1 1 3 -8 8 -3 -0 -0 -4 -17 4 2 4 3 1 1 -0 -1 -1 -1 -1 1 1 -1 2 -3 1 1 3 -2 -3 -7 11 3 -0 4 -2 -3
-3 0 -7 -1 2 -3 -7 2 5 6 -4 -2 5 2 1 -4 5 2 2 1 2 4 0 1 -2 -0 -1 -0 -1 -0 0 -3 -2 -5 0 1 0 2 -9 2 1 4 3 -1 -5
-2 -3 1 -3 -1 1 -1 -7 3 7 -1 -8 7 5 0 -51 0 -1 2 4 1 2 6 5 2 2 2 0 2 -1 0 -2 -1 -3 -3 1 -3 -3 4 2 2 1 -1 -2 -1
-1 -2 0 0 -4 1 -2 0 -2 4 2 -2 1 5 -22 -0 -4 -6 10 -2 6 1 0 6 2 0 1 -0 -0 1 0 -1 -3 0 -1 -4 -9 -8 2 3 2 0 0 -2 -2
5 1 -4 1 -6 -3 6 -6 -2 -1 1 4 -1 4 -22 1 -5 2 6 -2 2 5 2 7 4 -2 3 -1 -3 -1 -1 1 -8 -0 -0 -1 -6 -4 -1 2 1 0 -1 -1 0
1 -2 7 -2 -7 -1 -4 7 -5 2 -3 1 5 4 1 -7 2 0 0 2 2 8 8 5 2 -1 1 -1 -5 -3 0 -0 -1 -4 -1 -0 -5 -4 -0 1 -1 -1 -0 -1 -1
3 -1 -1 -1 -6 -0 -9 -18 -6 3 0 -5 1 3 4 -4 -0 7 1 -2 1 7 -1 1 -3 -4 -8 -3 -2 -1 1 -0 -3 -1 1 -1 -1 -5 -1 2 1 1 0 -1 -4
-1 -1 -1 -6 -1 1 0 1 4 2 -10 -11 -12 -8 -8 12 -8 3 2 -2 1 -1 1 1 -3 -10 -1 1 -0 1 0 -5 -7 -2 1 -2 -5 -3 -0 -2 -3 -1 -1 -1 0
0 -2 1 1 -5 2 4 0 3 2 6 -13 1 1 -12 20 -8 -21 -0 3 -2 2 -0 -2 -6 1 0 2 3 -0 -2 -2 -3 -2 -2 2 -5 -2 -2 0 1 1 0 1 -3
-0 1 2 -1 2 -1 -3 -1 2 3 3 -14 -2 -4 1 3 -3 -15 2 -5 3 -6 -1 -3 -6 1 2 -0 -1 2 -3 0 1 -2 -4 -4 -7 -3 -2 -3 0 -0 0 -1 -2
-0 2 3 0 0 -2 3 2 -0 2 -0 -6 3 5 4 -3 4 5 -2 13 -3 -2 -2 -18 0 3 2 -7 -2 -15 -2 -2 -0 0 1 -3 0 -14 0 -2 -3 -2 -2 -2 -0
-3 5 10 1 -2 -3 2 1 -1 -0 -15 -6 2 1 -1 0 -4 2 1 7 -3 2 1 -4 1 -3 -9 -2 -4 -2 2 1 -0 -1 2 -6 -2 -8 -2 -6 -2 -1 -1 1 -2
-1 5 12 -1 -2 2 1 -2 0 2 -10 -3 1 -1 0 -0 -0 1 -0 3 -3 2 3 1 -1 -0 -2 1 5 3 -2 -2 -2 -1 -7 -1 2 -13 -3 -3 -2 -2 -4 1 1
3 9 1 -4 3 -2 0 -1 10 -5 -1 -2 0 -2 0 -1 -0 -2 1 0 -2 0 -0 -0 -2 -1 -2 -7 -9 -4 -6 -7 -5 -2 -4 0 -3 -18 -4 -1 -2 -1 -2 1 2
12 3 4 -5 3 3 -1 6 -8 -2 -0 0 -5 -1 -2 -1 -1 -3 0 -1 -2 -2 -5 0 -4 -1 0 -1 -4 -3 5 -11 -4 -0 -2 -4 -7 -8 -1 -2 -1 -1 -0 0 -3
4 6 -2 -5 8 13 4 -8 -1 0 -1 -3 0 -1 0 -1 -3 -3 -0 -2 -1 0 -1 -4 -3 -2 -3 2 1 -10 -7 -4 -1 -2 -0 -2 -1 -7 -4 -5 -2 -1 -1 -2 4
16 15 -15 -5 22 18 -2 -4 -2 -9 5 0 0 -0 1 1 1 -0 -2 -6 -1 -3 0 1 -1 -10 -1 -0 -5 4 4 1 -8 -4 -4 -2 -9 -6 -3 -2 -1 -2 -3 0 3
13 9 12 -6 18 -0 0 -6 -4 -1 0 -2 1 1 0 -0 0 0 -1 2 1 2 -0 -2 -2 -1 -8 -4 -2 -3 -3 -3 -2 -2 -1 -3 -13 -1 -1 -1 0 -2 -1 0 -1
11 -2 15 2 2 1 2 -2 -2 1 -1 0 -0 -1 0 0 -2 1 -0 -2 -2 0 2 3 -6 -0 -5 -8 -0 0 -0 -1 -1 -2 -3 -0 -8 -1 0 -0 -2 -1 -1 -2 -2
5 3 6 39 -0 -2 1 -5 1 -1 -2 1 1 -1 -1 -0 -1 -2 -1 -3 1 1 2 0 0 -0 -10 -7 -4 2 1 0 -2 -1 -3 -4 -2 -3 -2 -1 -1 -3 -2 -1 0
4 -6 -6 -1 8 1 5 -1 1 2 0 3 0 1 -1 1 -1 -1 -1 -4 -2 -2 1 1 2 4 -3 -2 3 -1 -1 0 1 -3 -0 -5 -1 -5 -3 -2 -4 -1 0 -2 -6
-3 -2 4 -0 4 7 1 -6 -3 1 -4 -1 4 -1 2 1 -7 -3 2 -1 0 -5 -1 1 -5 2 -2 1 1 1 -0 0 -0 -0 1 0 -3 -1 -4 2 -1 -2 0 -2 -4
12 -4 1 -5 2 8 -13 -11 -8 2 -2 -4 -7 4 3 -14 -3 -10 -2 -3 -1 6 -0 3 0 1 -2 -0 0 2 -7 -1 -1 -0 -4 -2 -6 -1 -0 -0 -2 -4 2 -3 -2
Height
1512 1512 1511 1509 1508 1507 1504 1503 1503 1502 1500 1498 1494 1491 1489 1487 1484 1481 1479 1481 1479 1479 1480 1483 1484 1487 1489 1491 1491 1489 1503 1510 1497 1497 1486 1480 1482 1480 1477 1477 1477 1477 1475 1472 1471
1510 1508 1507 1506 1504 1504 1502 1500 1499 1499 1497 1496 1493 1489 1487 1483 1480 1475 1474 1473 1475 1476 1478 1480 1482 1484 1487 1488 1490 1489 1500 1496 1485 1482 1480 1476 1479 1477 1476 1475 1473 1473 1471 1471 1472
1508 1506 1505 1503 1502 1500 1499 1497 1494 1495 1493 1493 1491 1488 1485 1482 1477 1472 1470 1468 1471 1474 1477 1479 1481 1482 1485 1485 1487 1487 1489 1484 1480 1479 1478 1475 1474 1474 1472 1473 1465 1468 1467 1469 1470
1505 1505 1502 1502 1500 1497 1495 1494 1491 1491 1491 1489 1487 1485 1484 1483 1481 1471 1471 1470 1471 1473 1475 1477 1480 1481 1482 1483 1481 1485 1479 1478 1474 1476 1475 1474 1471 1470 1469 1463 1463 1465 1464 1465 1468
1503 1502 1501 1500 1498 1496 1492 1491 1489 1487 1487 1487 1483 1483 1481 1481 1471 1470 1471 1471 1470 1471 1473 1475 1477 1478 1480 1478 1478 1479 1476 1474 1471 1471 1471 1469 1465 1468 1463 1459 1461 1463 1463 1464 1469
1501 1499 1500 1497 1495 1491 1490 1490 1486 1483 1483 1484 1480 1479 1480 1481 1467 1465 1466 1467 1468 1468 1471 1473 1474 1475 1476 1476 1477 1473 1472 1470 1467 1465 1466 1464 1462 1465 1452 1455 1459 1463 1462 1463 1466
1499 1496 1496 1494 1494 1489 1487 1486 1484 1480 1478 1480 1479 1475 1474 1464 1465 1462 1462 1463 1464 1464 1466 1469 1473 1474 1474 1474 1473 1472 1473 1468 1462 1460 1461 1460 1462 1462 1447 1450 1455 1458 1460 1462 1464
1495 1493 1493 1492 1491 1488 1484 1481 1480 1476 1473 1472 1477 1473 1463 1455 1456 1456 1458 1455 1458 1461 1464 1467 1470 1471 1471 1472 1471 1473 1472 1475 1459 1457 1457 1458 1467 1447 1447 1449 1451 1454 1457 1459 1462
1493 1489 1489 1488 1488 1486 1480 1477 1475 1471 1467 1466 1472 1471 1457 1449 1448 1450 1451 1451 1452 1455 1461 1465 1468 1468 1470 1474 1481 1478 1482 1476 1465 1454 1456 1460 1459 1442 1444 1446 1449 1450 1452 1456 1460
1488 1491 1487 1483 1484 1482 1478 1473 1471 1466 1463 1463 1469 1472 1451 1446 1446 1447 1449 1449 1450 1453 1458 1463 1464 1467 1469 1474 1482 1479 1479 1475 1472 1458 1455 1458 1456 1443 1441 1444 1448 1448 1450 1453 1456
1486 1486 1486 1482 1482 1481 1477 1472 1471 1468 1464 1459 1460 1450 1444 1442 1445 1445 1446 1448 1449 1453 1454 1455 1463 1465 1453 1459 1463 1468 1471 1470 1464 1458 1457 1453 1455 1443 1439 1441 1443 1445 1447 1450 1452
1482 1483 1483 1483 1482 1478 1478 1477 1478 1477 1461 1453 1449 1447 1443 1444 1443 1441 1445 1447 1448 1451 1451 1457 1455 1445 1453 1457 1460 1464 1468 1467 1461 1452 1458 1453 1448 1438 1436 1436 1435 1439 1443 1447 1450
1478 1480 1480 1480 1479 1476 1475 1478 1477 1473 1468 1440 1436 1435 1433 1438 1433 1430 1441 1441 1443 1448 1449 1447 1442 1445 1449 1454 1459 1458 1463 1462 1465 1456 1453 1451 1451 1439 1432 1432 1431 1432 1437 1441 1445
1475 1477 1477 1478 1478 1474 1474 1476 1475 1472 1470 1441 1433 1428 1428 1430 1430 1424 1429 1437 1439 1442 1445 1445 1442 1443 1447 1448 1449 1461 1448 1453 1460 1464 1473 1451 1469 1443 1432 1431 1429 1428 1430 1433 1438
1473 1474 1475 1475 1475 1475 1475 1475 1476 1475 1468 1431 1428 1427 1425 1426 1422 1419 1422 1429 1430 1434 1437 1438 1437 1440 1445 1443 1447 1448 1444 1451 1455 1463 1462 1456 1468 1445 1431 1429 1424 1420 1421 1425 1430
1469 1470 1472 1473 1471 1473 1474 1474 1477 1477 1462 1431 1427 1427 1429 1426 1421 1419 1422 1426 1427 1430 1429 1431 1429 1433 1435 1435 1440 1438 1446 1448 1452 1461 1473 1455 1460 1445 1433 1424 1417 1412 1413 1417 1422
1465 1466 1468 1470 1470 1472 1473 1475 1479 1474 1438 1431 1430 1429 1427 1424 1422 1419 1423 1426 1429 1436 1429 1430 1429 1428 1428 1437 1439 1442 1450 1466 1469 1475 1464 1444 1455 1432 1418 1414 1412 1410 1409 1411 1415
1460 1462 1462 1465 1468 1471 1473 1477 1470 1446 1444 1433 1432 1427 1427 1423 1421 1421 1424 1430 1426 1425 1430 1433 1437 1426 1422 1427 1434 1438 1443 1458 1456 1463 1453 1444 1445 1429 1407 1405 1406 1404 1403 1406 1410
1455 1455 1456 1459 1464 1469 1473 1473 1449 1445 1441 1437 1431 1430 1428 1424 1423 1423 1426 1427 1422 1424 1428 1430 1428 1413 1411 1414 1420 1430 1436 1431 1448 1453 1456 1445 1429 1414 1403 1401 1401 1399 1399 1400 1404
1449 1449 1449 1453 1458 1464 1467 1454 1447 1442 1442 1437 1439 1435 1435 1433 1429 1429 1428 1423 1421 1416 1414 1415 1425 1411 1406 1410 1411 1415 1419 1439 1445 1454 1455 1443 1435 1427 1408 1401 1398 1397 1394 1396 1399
1444 1441 1439 1448 1453 1455 1446 1447 1444 1443 1445 1445 1444 1441 1437 1436 1434 1434 1430 1425 1422 1420 1417 1419 1420 1416 1406 1410 1413 1419 1418 1419 1421 1433 1436 1444 1433 1408 1404 1401 1400 1396 1393 1393 1395
1435 1432 1429 1439 1445 1438 1435 1440 1442 1442 1442 1446 1445 1445 1443 1440 1436 1435 1434 1428 1425 1423 1424 1420 1420 1422 1413 1400 1401 1403 1408 1412 1426 1430 1435 1436 1417 1396 1397 1397 1395 1395 1391 1392 1394
1424 1422 1427 1427 1425 1427 1432 1436 1441 1440 1441 1442 1443 1442 1440 1441 1442 1433 1430 1426 1424 1426 1431 1430 1424 1424 1417 1406 1398 1401 1402 1404 1409 1419 1429 1431 1416 1395 1395 1394 1393 1393 1392 1391 1393
1415 1416 1417 1413 1412 1418 1426 1428 1433 1436 1440 1441 1441 1441 1441 1441 1437 1436 1433 1427 1425 1426 1427 1433 1423 1417 1411 1408 1402 1402 1398 1399 1401 1422 1421 1417 1405 1399 1395 1394 1392 1391 1390 1389 1390
1403 1399 1397 1400 1401 1409 1416 1417 1425 1430 1434 1436 1441 1441 1442 1443 1440 1437 1431 1428 1424 1423 1424 1431 1424 1413 1401 1397 1394 1395 1394 1395 1400 1402 1406 1400 1402 1395 1392 1388 1385 1385 1388 1388 1389
1389 1391 1393 1393 1398 1406 1408 1408 1414 1423 1427 1432 1434 1433 1436 1439 1437 1432 1429 1428 1427 1418 1422 1427 1424 1410 1397 1390 1390 1395 1391 1393 1395 1397 1393 1391 1394 1389 1388 1384 1384 1383 1384 1385 1385
1379 1384 1388 1386 1391 1398 1395 1401 1409 1417 1421 1423 1427 1431 1432 1425 1426 1427 1429 1427 1429 1431 1427 1425 1421 1411 1392 1385 1388 1399 1384 1387 1385 1386 1387 1395 1390 1386 1384 1382 1379 1377 1378 1378 1380